Greenville, AL

7:13 AM CST on December 18, 2017 (GMT -0600)
Greenville Municipal

Weather History for KPRN - February, 2015

Change the Weather History Date:

Wednesday, February 25, 2015

  Actual Average Record
Temperature  
Mean Temperature 40 °F -  
Max Temperature 43 °F 65 °F 85 °F (1969)
Min Temperature 37 °F 39 °F 20 °F (1967)
Degree Days  
Heating Degree Days 25    
Moisture  
Dew Point 37 °F    
Average Humidity 88    
Maximum Humidity 100    
Minimum Humidity 65    
Precipitation  
Precipitation 1.12 in - - ()
Sea Level Pressure  
Sea Level Pressure 29.78 in    
Wind  
Wind Speed 5 mph (NE)    
Max Wind Speed 10 mph    
Max Gust Speed -    
Visibility 5 miles    
Events Rain , Thunderstorm    
Averages and records for this station are not official NWS values.
T = Trace of Precipitation, MM = Missing Value Source: NWS Daily Summary

Daily Weather History Graph

Daily Weather History Graph

Search for Another Location

Airport or City:

Trip Planner

Search our weather history database for the weather conditions in past years. The results will help you decide how hot, cold, wet, or windy it might be!

Date:

Astronomy

Feb. 25, 2015 Rise Set
Actual Time 6:18 AM CST 5:41 PM CST
Civil Twilight 5:53 AM CST 6:05 PM CST
Nautical Twilight 5:25 AM CST 6:34 PM CST
Astronomical Twilight 4:57 AM CST 7:02 PM CST
Moon 11:03 AM CST (2/25) 12:05 AM CST (2/25)
Length of Visible Light 12h 11m
Length of Day
11h 22m
Waxing Crescent, 50% of the Moon is Illuminated
Feb 25
Waxing Crescent
Mar 5
Full
Mar 13
Last Quarter
Mar 20
New
Mar 27
First Quarter

Hourly Weather History & Observations

Time (CST) Temp. Windchill Dew Point Humidity Pressure Visibility Wind Dir Wind Speed Gust Speed Precip Events Conditions
12:56 AM 37.9 °F 35.5 °F 33.1 °F 83% 29.99 in 10.0 mi NW 3.5 mph - N/A   Overcast
1:56 AM 37.9 °F 32.7 °F 33.1 °F 83% 29.96 in 10.0 mi North 6.9 mph - N/A   Clear
2:56 AM 37.0 °F - 32.0 °F 82% 29.95 in 10.0 mi Calm Calm - N/A   Clear
3:56 AM 37.0 °F 33.3 °F 32.0 °F 82% 29.98 in 10.0 mi NNW 4.6 mph - N/A   Mostly Cloudy
4:56 AM 37.0 °F - 30.9 °F 79% 29.96 in 10.0 mi Calm Calm - N/A   Partly Cloudy
5:56 AM 37.9 °F - 30.9 °F 76% 29.95 in 10.0 mi Calm Calm - N/A   Overcast
6:56 AM 37.9 °F - 32.0 °F 79% 29.95 in 10.0 mi Calm Calm - N/A   Overcast
7:56 AM 39.9 °F 36.7 °F 32.0 °F 73% 29.95 in 10.0 mi NE 4.6 mph - N/A   Overcast
8:56 AM 43.0 °F 40.3 °F 32.0 °F 65% 29.95 in 10.0 mi East 4.6 mph - N/A   Overcast
10:56 AM 42.1 °F 39.2 °F 35.1 °F 76% 29.86 in 6.0 mi ENE 4.6 mph - 0.01 in Rain Rain
11:03 AM 42.8 °F 41.1 °F 37.4 °F 81% 29.87 in 3.0 mi Variable 3.5 mph - 0.02 in Rain , Thunderstorm Thunderstorms and Rain
11:11 AM 41.0 °F - 37.4 °F 87% 29.88 in 2.0 mi Calm Calm - 0.07 in Rain , Thunderstorm Thunderstorms and Rain
11:18 AM 41.0 °F - 37.4 °F 87% 29.88 in 3.0 mi Calm Calm - 0.09 in Rain Rain
11:28 AM 41.0 °F - 37.4 °F 87% 29.87 in 2.0 mi Calm Calm - 0.15 in Rain Heavy Rain
11:54 AM 41.0 °F 35.8 °F 37.4 °F 87% 29.80 in 5.0 mi East 8.1 mph - 0.23 in Rain Light Rain
11:56 AM 41.0 °F 35.2 °F 37.9 °F 89% 29.81 in 5.0 mi East 9.2 mph - 0.23 in Rain Light Rain
12:21 PM 41.0 °F - 39.2 °F 93% 29.81 in 2.5 mi Calm Calm - 0.05 in Rain Heavy Rain
12:27 PM 41.0 °F 35.2 °F 37.4 °F 87% 29.77 in 1.8 mi NE 9.2 mph - 0.08 in Rain Heavy Rain
12:31 PM 41.0 °F 37.1 °F 37.4 °F 87% 29.76 in 2.0 mi ENE 5.8 mph - 0.09 in Rain Heavy Rain
12:43 PM 41.0 °F - 37.4 °F 87% 29.79 in 4.0 mi Calm Calm - 0.12 in Rain Rain
12:56 PM 41.0 °F - 39.0 °F 93% 29.81 in 2.0 mi Calm Calm - 0.17 in Rain Heavy Rain
1:03 PM 41.0 °F 39.0 °F 39.2 °F 93% 29.78 in 1.8 mi East 3.5 mph - 0.03 in Rain Rain
1:07 PM 42.8 °F - 39.2 °F 87% 29.79 in 2.0 mi Calm Calm - 0.04 in Rain Rain
1:26 PM 41.0 °F - 39.2 °F 93% 29.81 in 1.8 mi Calm Calm - 0.08 in Rain Rain
1:35 PM 42.8 °F 40.1 °F 39.2 °F 87% 29.78 in 1.5 mi NNE 4.6 mph - 0.12 in Rain Heavy Rain
1:53 PM 42.8 °F 39.3 °F 39.2 °F 87% 29.76 in 2.5 mi NE 5.8 mph - 0.16 in Rain Rain
1:56 PM 42.1 °F 37.1 °F 39.0 °F 89% 29.76 in 2.5 mi NE 8.1 mph - 0.16 in Rain Rain
2:14 PM 42.8 °F 39.3 °F 39.2 °F 87% 29.75 in 4.0 mi NE 5.8 mph - 0.03 in Rain Light Rain
2:33 PM 41.0 °F - 39.2 °F 93% 29.78 in 2.5 mi Calm Calm - 0.05 in Rain Light Rain
2:43 PM 41.0 °F 35.8 °F 39.2 °F 93% 29.72 in 1.8 mi East 8.1 mph - 0.10 in Rain Heavy Rain
2:49 PM 41.0 °F 34.7 °F 39.2 °F 93% 29.72 in 2.0 mi East 10.4 mph - 0.11 in Rain Rain
2:54 PM 41.0 °F 35.2 °F 39.2 °F 93% 29.71 in 3.0 mi East 9.2 mph - 0.12 in Rain Rain
2:56 PM - - - N/A% - 3.0 mi East 8.1 mph - N/A Rain Rain
3:03 PM 41.0 °F 37.1 °F 39.2 °F 93% 29.71 in 3.0 mi ENE 5.8 mph - 0.01 in Rain Light Rain
3:10 PM 41.0 °F 34.7 °F 39.2 °F 93% 29.70 in 3.0 mi East 10.4 mph - 0.03 in Rain Heavy Rain
3:17 PM 41.0 °F 35.8 °F 39.2 °F 93% 29.70 in 2.5 mi East 8.1 mph - 0.05 in Rain Heavy Rain
3:19 PM 41.0 °F 35.8 °F 39.2 °F 93% 29.70 in 3.0 mi East 8.1 mph - 0.06 in Rain Rain
3:52 PM 41.0 °F 35.8 °F 39.2 °F 93% 29.67 in 2.0 mi ENE 8.1 mph - 0.14 in Rain Heavy Rain
3:56 PM 41.0 °F 36.4 °F 39.0 °F 93% 29.68 in 2.0 mi ENE 6.9 mph - 0.15 in Rain Heavy Rain
4:06 PM 41.0 °F 35.2 °F 39.2 °F 93% 29.65 in 3.0 mi East 9.2 mph - 0.02 in Rain Rain
4:56 PM 41.0 °F 36.4 °F 39.0 °F 93% 29.64 in 1.8 mi NE 6.9 mph - 0.10 in Rain Rain
5:25 PM 39.2 °F 34.2 °F 37.4 °F 93% 29.64 in 4.0 mi NNE 6.9 mph - 0.05 in Rain Light Rain
5:56 PM 39.9 °F 34.5 °F 37.0 °F 89% 29.65 in 4.0 mi North 8.1 mph - 0.08 in Rain Rain
6:56 PM 39.0 °F 32.8 °F 37.0 °F 93% 29.66 in 4.0 mi NNE 9.2 mph - 0.05 in Rain Light Rain
7:56 PM 39.0 °F 32.8 °F 37.9 °F 96% 29.68 in 5.0 mi North 9.2 mph - 0.04 in Rain Light Rain
8:56 PM 37.9 °F 31.5 °F 37.9 °F 100% 29.67 in 7.0 mi NNE 9.2 mph - 0.01 in   Overcast
9:56 PM 39.0 °F 32.8 °F 37.9 °F 96% 29.70 in 10.0 mi North 9.2 mph - N/A   Overcast
10:56 PM 39.0 °F 33.4 °F 37.9 °F 96% 29.70 in 8.0 mi North 8.1 mph - N/A   Overcast
11:56 PM 39.0 °F 32.3 °F 37.9 °F 96% 29.71 in 8.0 mi North 10.4 mph - N/A   Overcast